This demonstration page uses our WeatherBlox Daily Observations layout. Learn more.

Left ArrowRight Arrow

Hourly Observations for November 25, 2018

Temp ( °F °C ) Dew Point ( °F °C ) Humidity (%) Winds ( mph kmh ) Pressure ( in mb ) Visibility ( mi km ) Precip ( " mm )
12:33 am 00:33 Clear with Mist and Fog 40 4.4 37 2.8 89 89 N N/A 29.85 1011 3 4 N/A
12:53 am 00:53 Clear with Mist and Fog 38 3.3 35 1.7 89 89 N N/A 29.84 1011 3 4 N/A
1:12 am 01:12 Clear with Mist and Fog 37 2.8 35 1.7 93 93 N N/A 29.85 1011 2 2 N/A
1:23 am 01:23 Clear with Mist and Fog 36 2.2 33 0.6 89 89 N N/A 29.85 1011 3 4 N/A
1:27 am 01:27 Clear with Mist and Fog 36 2.2 33 0.6 89 89 E 3 6 29.85 1011 1 2 N/A
1:35 am 01:35 Clear with Fog 37 2.8 33 0.6 86 86 N N/A 29.85 1011 0 0 N/A
1:53 am 01:53 Clear with Fog 36 2.2 34 1.1 93 93 N N/A 29.85 1011 1 1 N/A
2:03 am 02:03 Clear with Mist and Fog 35 1.7 33 0.6 93 93 N N/A 29.88 1012 1 2 N/A
2:21 am 02:21 Clear with Mist and Fog 35 1.7 32 undefined 89 89 N N/A 29.88 1012 2 3 N/A
2:23 am 02:23 Mostly Clear with Mist and Fog 36 2.2 32 undefined 86 86 N N/A 29.88 1012 2 2 N/A
2:25 am 02:25 Mostly Cloudy with Mist and Fog 36 2.2 32 undefined 86 86 N N/A 29.88 1012 1 1 N/A
2:53 am 02:53 Mostly Cloudy with Fog 33 0.6 32 undefined 96 96 N N/A 29.88 1012 0 0 N/A
3:53 am 03:53 Mostly Cloudy with Fog 33 0.6 31 -0.6 92 92 N N/A 29.88 1012 0 0 N/A
4:53 am 04:53 Mostly Cloudy with Fog 33 0.6 31 -0.6 92 92 N N/A 29.89 1012 0 0 N/A
5:53 am 05:53 Mostly Cloudy with Fog 35 1.7 33 0.6 93 93 N N/A 29.89 1012 0 0 N/A
6:53 am 06:53 Mostly Cloudy with Fog 32 undefined 30 -1.1 92 92 N N/A 29.91 1013 0 0 N/A
7:53 am 07:53 Mostly Cloudy with Fog 33 0.6 32 undefined 96 96 N N/A 29.91 1013 5 8 N/A
8:53 am 08:53 Mostly Cloudy with Fog 35 1.7 34 1.1 96 96 N N/A 29.92 1013 5 8 N/A
9:53 am 09:53 Mostly Cloudy with Fog 41 5 40 4.4 96 96 E 3 6 29.93 1014 5 8 N/A
10:53 am 10:53 Mostly Cloudy with Fog 43 6.1 42 5.6 97 97 E 6 9 29.93 1013 0 0 N/A
11:37 am 11:37 Cloudy with Mist and Fog 45 7.2 45 7.2 100 100 E 7 11 29.91 1013 2 3 N/A
11:42 am 11:42 Cloudy with Mist and Fog 45 7.2 44 6.7 97 97 E 7 11 29.91 1013 3 5 N/A
11:53 am 11:53 Mostly Cloudy with Mist and Fog 46 7.8 45 7.2 96 96 ENE 5 7 29.90 1012 3 5 N/A
12:11 pm 12:11 Partly Cloudy with Mist and Fog 47 8.3 46 7.8 97 97 VRB 3 6 29.91 1013 5 8 N/A
12:53 pm 12:53 Sunny 51 10.6 46 7.8 83 83 VRB 3 6 29.88 1012 7 11 N/A
1:53 pm 13:53 Sunny 52 11.1 46 7.8 80 80 ESE 6 9 29.84 1011 9 14 N/A
2:53 pm 14:53 Sunny 53 11.7 47 8.3 80 80 ESE 5 7 29.82 1010 10 16 N/A
3:53 pm 15:53 Sunny 54 12.2 47 8.3 77 77 VRB 5 7 29.80 1009 10 16 N/A
4:53 pm 16:53 Sunny 53 11.7 47 8.3 80 80 ESE 7 11 29.76 1008 10 16 N/A
5:53 pm 17:53 Clear 52 11.1 47 8.3 83 83 ESE 6 9 29.71 1006 10 16 N/A
6:53 pm 18:53 Clear 54 12.2 45 7.2 72 72 VRB 6 9 29.69 1006 10 16 N/A
7:53 pm 19:53 Mostly Cloudy 54 12.2 42 5.6 64 64 ESE 5 7 29.66 1005 10 16 N/A
8:53 pm 20:53 Cloudy 54 12.2 43 6.1 67 67 SE 7 11 29.60 1002 10 16 N/A
9:53 pm 21:53 Cloudy 54 12.2 43 6.1 67 67 SE 6 9 29.56 1001 10 16 N/A
10:53 pm 22:53 Cloudy 53 11.7 44 6.7 72 72 ESE 8 13 29.50 999 10 16 0.01 0.25
11:53 pm 23:53 Cloudy with Rain 51 10.6 45 7.2 80 80 VRB 6 9 29.47 998 5 8 0.07 1.78

Powered by AerisWeather